Date String (YYYY-MM-DD hh:mm:ss) UTC,Instrument flags,absolute air pressure of the measurement (hPa),sample flow rate (lpm),inlet stack bypass flow (lpm),air temperature of the measurement (°C),ambient temperature measured by the external sensor (°C),aerosol sample conditioner tube jacket temperature (°C),OPC LED temperature (°C),internal box temperature (°C),relative humidity of the measurement (%),span deviation,mass concentration of particles derived from Lorenz-Mie calculation of OPC scattering (μg/m³),mass concentration of particles derived from Lorenz-Mie calculation of OPC scattering (μg/m³),mass concentration of particles derived from Lorenz-Mie calculation of OPC scattering (μg/m³)
DateTimeUTC,F1_M11,P_M11,Q1_M11,Q2_M11,T1_M11,T2_M11,T3_M11,T4_M11,T5_M11,U1_M11,ZSPAN_M11,X0_M11,X2_M11,X1_M11
2023-09-30 07:00:00,SystemResetWarning,0828.3,4.99,000.00,028.6,027.4,000.0,037.0,030.4,20.0,0000.0,0021.85,0006.36,0004.32
2023-09-30 07:01:00,SystemResetWarning,0828.4,4.99,000.00,028.6,027.5,000.0,037.0,030.4,20.1,0000.0,0020.35,0006.37,0004.31
2023-09-30 07:02:00,SystemResetWarning,0828.3,5.00,000.00,028.7,027.5,000.0,037.0,030.4,20.1,0000.0,0020.99,0006.37,0004.32
2023-09-30 07:03:00,SystemResetWarning,0828.3,5.00,000.00,028.7,027.5,000.0,037.0,030.5,19.9,0000.0,0022.68,0006.34,0004.32
2023-09-30 07:04:00,SystemResetWarning,0828.3,5.00,000.00,028.7,027.5,000.0,037.1,030.5,20.0,0000.0,0022.78,0006.36,0004.31
2023-09-30 07:05:00,SystemResetWarning,0828.3,5.01,000.00,028.7,027.6,000.0,037.1,030.5,20.0,0000.0,0021.85,0006.34,0004.31
2023-09-30 07:06:00,SystemResetWarning,0828.3,5.00,000.00,028.8,027.6,000.0,037.1,030.5,20.0,0000.0,0021.53,0006.31,0004.31
2023-09-30 07:07:00,SystemResetWarning,0828.4,5.00,000.00,028.8,027.5,000.0,037.1,030.5,20.1,0000.0,0021.70,0006.28,0004.32
2023-09-30 07:08:00,SystemResetWarning,0828.3,4.98,000.00,028.8,026.0,000.0,037.1,030.4,20.1,0000.0,0021.56,0006.26,0004.32
2023-09-30 07:09:00,SystemResetWarning,0828.3,5.01,000.00,028.7,024.6,000.0,037.0,030.2,20.0,0000.0,0021.22,0006.24,0004.32
2023-09-30 07:10:00,SystemResetWarning,0828.3,5.02,000.00,028.6,024.5,000.0,037.0,030.0,19.9,0000.0,0020.58,0006.17,0004.32
2023-09-30 07:11:00,SystemResetWarning,0828.3,4.99,000.00,028.4,024.7,000.0,037.0,029.9,20.2,0000.0,0021.12,0006.14,0004.32
2023-09-30 07:12:00,SystemResetWarning,0828.3,5.01,000.00,028.4,025.1,000.0,037.0,029.9,20.2,0000.0,0022.98,0006.19,0004.33
2023-09-30 07:13:00,SystemResetWarning,0828.3,4.99,000.00,028.4,025.5,000.0,037.0,029.9,20.3,0000.0,0023.23,0006.24,0004.34
2023-09-30 07:14:00,SystemResetWarning,0828.3,4.99,000.00,028.3,025.8,000.0,037.0,029.9,20.5,0000.0,0021.01,0006.28,0004.35
2023-09-30 07:15:00,SystemResetWarning,0828.3,5.00,000.00,028.3,026.1,000.0,036.9,030.0,20.5,0000.0,0020.11,0006.24,0004.37
2023-09-30 07:16:00,SystemResetWarning,0828.3,5.00,000.00,028.3,026.3,000.0,036.9,030.0,20.4,0000.0,0020.49,0006.18,0004.37
2023-09-30 07:17:00,SystemResetWarning,0828.4,5.00,000.00,028.3,026.5,000.0,036.9,030.1,20.2,0000.0,0020.98,0006.16,0004.37
2023-09-30 07:18:00,SystemResetWarning,0828.4,5.00,000.00,028.4,026.7,000.0,036.9,030.1,20.3,0000.0,0020.71,0006.12,0004.35
2023-09-30 07:19:00,SystemResetWarning,0828.4,5.00,000.00,028.4,026.8,000.0,036.9,030.1,20.3,0000.0,0021.06,0006.12,0004.36
2023-09-30 07:20:00,SystemResetWarning,0828.4,5.01,000.00,028.4,026.9,000.0,036.9,030.2,19.9,0000.0,0021.24,0006.00,0004.36
2023-09-30 07:21:00,SystemResetWarning,0828.4,5.00,000.00,028.4,027.0,000.0,036.9,030.2,19.2,0000.0,0020.92,0005.97,0004.35
2023-09-30 07:22:00,SystemResetWarning,0828.4,5.00,000.00,028.5,027.1,000.0,036.9,030.2,18.3,0000.0,0020.51,0005.96,0004.36
2023-09-30 07:23:00,SystemResetWarning,0828.4,4.99,000.00,028.5,027.2,000.0,036.9,030.2,17.5,0000.0,0020.94,0005.98,0004.36
2023-09-30 07:24:00,SystemResetWarning,0828.4,5.00,000.00,028.5,027.2,000.0,036.9,030.3,17.0,0000.0,0022.68,0005.96,0004.35
2023-09-30 07:25:00,SystemResetWarning,0828.4,5.00,000.00,028.5,027.3,000.0,037.0,030.3,16.8,0000.0,0023.47,0005.99,0004.34
2023-09-30 07:26:00,SystemResetWarning,0828.4,5.00,000.00,028.6,027.4,000.0,037.0,030.3,16.7,0000.0,0046.55,0006.36,0004.36
2023-09-30 07:27:00,SystemResetWarning,0828.4,5.00,000.00,028.6,027.4,000.0,037.0,030.4,16.7,0000.0,0119.52,0007.33,0004.39
2023-09-30 07:28:00,SystemResetWarning,0828.4,5.00,000.00,028.6,027.5,000.0,037.0,030.4,17.1,0000.0,0119.16,0007.38,0004.39
2023-09-30 07:29:00,SystemResetWarning,0828.4,5.00,000.00,028.6,027.5,000.0,037.0,030.4,18.3,0000.0,0119.94,0007.47,0004.39
2023-09-30 07:30:00,SystemResetWarning,0828.4,5.00,000.00,028.7,027.6,000.0,037.0,030.4,18.1,0000.0,0121.77,0007.57,0004.40
2023-09-30 07:31:00,SystemResetWarning,0828.4,5.00,000.00,028.7,027.6,000.0,037.1,030.5,18.2,0000.0,0121.50,0007.60,0004.41
2023-09-30 07:32:00,SystemResetWarning,0828.4,5.00,000.00,028.7,027.6,000.0,037.1,030.5,19.5,0000.0,0122.23,0007.62,0004.39
2023-09-30 07:33:00,SystemResetWarning,0828.5,5.00,000.00,028.8,027.7,000.0,037.1,030.5,19.9,0000.0,0122.07,0007.63,0004.39
2023-09-30 07:34:00,SystemResetWarning,0828.5,5.00,000.00,028.8,027.7,000.0,037.1,030.6,19.7,0000.0,0120.84,0007.62,0004.40
2023-09-30 07:35:00,SystemResetWarning,0828.5,5.00,000.00,028.8,027.7,000.0,037.2,030.6,19.6,0000.0,0118.67,0007.59,0004.40
2023-09-30 07:36:00,SystemResetWarning,0828.5,5.01,000.00,028.8,027.8,000.0,037.2,030.6,19.6,0000.0,0117.91,0007.60,0004.41
2023-09-30 07:37:00,SystemResetWarning,0828.5,4.99,000.00,028.8,026.8,000.0,037.2,030.5,19.5,0000.0,0117.56,0007.59,0004.41
2023-09-30 07:38:00,SystemResetWarning,0828.4,5.01,000.00,028.8,024.9,000.0,037.1,030.3,19.5,0000.0,0022.59,0006.32,0004.37
2023-09-30 07:39:00,SystemResetWarning,0828.4,5.01,000.00,028.7,024.5,000.0,037.0,030.2,19.6,0000.0,0023.96,0006.38,0004.39
2023-09-30 07:40:00,SystemResetWarning,0828.4,5.01,000.00,028.5,024.7,000.0,037.0,029.9,19.7,0000.0,0025.09,0006.39,0004.40
2023-09-30 07:41:00,SystemResetWarning,0828.4,4.99,000.00,028.5,025.0,000.0,037.0,029.9,19.9,0000.0,0024.74,0006.31,0004.41
2023-09-30 07:42:00,SystemResetWarning,0828.4,5.00,000.00,028.4,025.4,000.0,037.0,030.0,20.0,0000.0,0025.14,0006.30,0004.41
2023-09-30 07:43:00,SystemResetWarning,0828.4,5.01,000.00,028.4,025.7,000.0,037.0,030.0,19.9,0000.0,0025.50,0006.35,0004.44
2023-09-30 07:44:00,SystemResetWarning,0828.4,4.99,000.00,028.4,026.1,000.0,037.0,030.0,19.8,0000.0,0027.05,0006.42,0004.45
2023-09-30 07:45:00,SystemResetWarning,0828.4,5.00,000.00,028.4,026.3,000.0,037.0,030.1,19.7,0000.0,0026.96,0006.38,0004.44
2023-09-30 07:46:00,SystemResetWarning,0828.4,5.00,000.00,028.4,026.5,000.0,037.0,030.1,19.7,0000.0,0027.06,0006.42,0004.46
2023-09-30 07:47:00,SystemResetWarning,0828.4,5.01,000.00,028.4,026.7,000.0,037.0,030.1,19.7,0000.0,0026.56,0006.37,0004.47
2023-09-30 07:48:00,SystemResetWarning,0828.4,4.99,000.00,028.4,026.9,000.0,037.0,030.2,19.6,0000.0,0027.44,0006.34,0004.46
2023-09-30 07:49:00,SystemResetWarning,0828.4,5.00,000.00,028.5,027.0,000.0,037.0,030.2,19.6,0000.0,0026.97,0006.45,0004.46
2023-09-30 07:50:00,SystemResetWarning,0828.4,5.00,000.00,028.5,027.1,000.0,037.0,030.2,19.6,0000.0,0026.24,0006.50,0004.45
2023-09-30 07:51:00,SystemResetWarning,0828.4,4.99,000.00,028.5,027.2,000.0,037.0,030.3,19.6,0000.0,0025.41,0006.49,0004.44
2023-09-30 07:52:00,SystemResetWarning,0828.4,5.00,000.00,028.5,027.2,000.0,037.0,030.3,20.3,0000.0,0024.86,0006.51,0004.43
2023-09-30 07:53:00,SystemResetWarning,0828.4,5.00,000.00,028.6,027.3,000.0,037.0,030.3,21.4,0000.0,0024.44,0006.50,0004.43
2023-09-30 07:54:00,SystemResetWarning,0828.4,5.00,000.00,028.6,027.4,000.0,037.0,030.3,21.7,0000.0,0023.35,0006.48,0004.42
2023-09-30 07:55:00,SystemResetWarning,0828.4,5.00,000.00,028.6,027.4,000.0,037.0,030.4,21.8,0000.0,0023.40,0006.54,0004.42
2023-09-30 07:56:00,SystemResetWarning,0828.4,5.00,000.00,028.6,027.5,000.0,037.0,030.4,21.6,0000.0,0024.04,0006.61,0004.43
2023-09-30 07:57:00,SystemResetWarning,0828.4,5.00,000.00,028.7,027.5,000.0,037.0,030.4,21.4,0000.0,0023.96,0006.59,0004.42
2023-09-30 07:58:00,SystemResetWarning,0828.4,4.99,000.00,028.7,027.6,000.0,037.1,030.5,21.5,0000.0,0023.50,0006.54,0004.41
2023-09-30 07:59:00,SystemResetWarning,0828.4,4.99,000.00,028.7,027.6,000.0,037.1,030.5,21.3,0000.0,0022.15,0006.52,0004.40
